User: anonymous   Login
Location: Churchill
(58.7670°N, 94.1670°W)
Time: 12:10:03
(UTC-06:00)
Language:

Cosmos 2142 Rocket - Orbit

View from above orbital plane
View from above orbital plane
View from above satellite
View from above satellite

Ground track
Ground track

The orbit data is extracted from the following two-line orbital elements,

1 21231U 91029B   16041.81948531  .00000103  00000-0  90607-4 0  9991
2 21231  82.9524 113.3882 0035624 163.2601 335.1501 13.75704466246087
Epoch (UTC): 10 February 2016 19:40:03
Eccentricity: 0.0035624
inclination: 82.9524°
perigee height: 953 km
apogee height: 1005 km
right ascension of ascending node: 113.3882°
argument of perigee: 163.2601°
revolutions per day: 13.75704466
mean anomaly at epoch: 335.1501°
orbit number at epoch: 24608

The dashed part of the orbit path shows where the satellite is in the earth's shadow,  

DLR